Location: Seasalter
(51.3333°N, 1.0167°E)
Time: 12:07:38
(UTC+00:00)

RESURS DK-1 - Pass Details

Date: 26 September 2023
Orbit: 544 x 553 km, 69.9° (Epoch: 28 November)

Event Time Altitude Azimuth Distance (km) Brightness Sun altitude
Exits shadow 03:21:04 44° 331° (NNW) 769 3.0 -22.8°
Drops below altitude 10° 03:24:30 10° 23° (NNE) 1,826 5.7 -22.3°
Sets 03:26:47 0° 29° (NNE) 2,725 6.8 -22.0°
